• MPC Preparation (Info)

  • MPEC 2024-D07 : 2024 CA7

    The following Minor Planet Electronic Circular may be linked-to from your own Web pages, but must not otherwise be redistributed electronically.

    A form allowing access to any MPEC is at the bottom of this page.


    Read MPEC 2024-D06 Read MPEC 2024-D08


    M.P.E.C. 2024-D07                             Issued 2024 February 16, 13:21 UT
    
         The Minor Planet Electronic Circulars contain information on unusual
             minor planets, routine data on comets and natural satellites,
             and occasional editorial announcements.  They are published
        on behalf of Division F of the International Astronomical Union by the
              Minor Planet Center, Smithsonian Astrophysical Observatory,
                              Cambridge, MA 02138, U.S.A.
    			  
                 Prepared using the Tamkin Foundation Computer Network
    
                                  MPC@CFA.HARVARD.EDU
                URL https://www.minorplanetcenter.net/    ISSN 1523-6714
    
                                    2024 CA7                                 
    
    
    Observations:
         K24C07A* C2024 02 13.63197012 54 53.714+22 59 58.96         21.55wXED007F52
         K24C07A  C2024 02 13.63846612 54 54.348+23 00 06.18         21.89wXED007F52
         K24C07A  C2024 02 13.64500912 54 54.995+23 00 13.33         21.83wXED007F52
         K24C07A  C2024 02 13.65153112 54 55.649+23 00 20.49         21.60wXED007F52
         K24C07A  C2024 02 14.29770512 56 11.020+23 12 50.79         21.5 GVED007H01
         K24C07A  C2024 02 14.30067912 56 11.352+23 12 54.69         21.3 GVED007H01
         K24C07A  C2024 02 14.31225112 56 12.610+23 13 09.24         21.0 GVED007H01
         K24C07A  C2024 02 14.31875312 56 13.314+23 13 17.37         21.1 GVED007H01
         K24C07A KC2024 02 14.37597 12 56 19.09 +23 14 27.1          21.6 GVED007H36
         K24C07A KC2024 02 14.39506 12 56 21.13 +23 14 52.0          21.4 GVED007H36
         K24C07A KC2024 02 14.41416 12 56 23.15 +23 15 15.7          21.6 GVED007H36
         K24C07A  C2024 02 14.50046712 56 34.359+23 17 10.47         21.30GVED007F52
         K24C07A  C2024 02 14.50128812 56 34.460+23 17 11.56         21.52GVED007F52
         K24C07A  C2024 02 14.50210712 56 34.544+23 17 12.51         21.76GVED007F52
         K24C07A  C2024 02 14.50292712 56 34.623+23 17 13.47         21.67GVED007F52
         K24C07A KC2024 02 15.08628 12 57 45.18 +23 29 37.9          21.5 GVED007204
         K24C07A IC2024 02 15.10098612 57 46.70 +23 29 58.2          21.2 GVED007L01
         K24C07A KC2024 02 15.10351312 57 47.02 +23 30 02.2          21.3 GVED007L01
         K24C07A KC2024 02 15.10604112 57 47.33 +23 30 05.2          21.5 GVED007L01
         K24C07A pC2024 02 15.10856812 57 47.63 +23 30 08.4          21.6 GVED007L01
         K24C07A KC2024 02 15.12439 12 57 49.62 +23 30 29.3                VED007204
         K24C07A KC2024 02 16.48592 13 00 53.71 +24 04 06.4          21.2 RVED007691
         K24C07A KC2024 02 16.49203 13 00 54.52 +24 04 15.8          21.1 RVED007691
         K24C07A KC2024 02 16.49814 13 00 55.34 +24 04 25.7          20.7 RVED007691
    
    Observer details:
    204 Schiaparelli Observatory.  Observer L. Buzzi.  0.84-m f/3.5 reflector +
        CMO.
    691 Steward Observatory, Kitt Peak-Spacewatch.  Observer J. V. Scotti.  0.9-m
        f/3 reflector + CCD.
    F52 Pan-STARRS 2, Haleakala.  Observers J. Herman, T. Lowe, P. Minguez, A.
        Schultz, I. Smith.  Measurers K. Chambers, T. de Boer, J. Fairlamb, H.
        Gao, M. Huber, C.-C. Lin, E. Magnier, Y. Ramanjooloo, R. Wainscoat, R.
        Weryk.  1.8-m Ritchey-Chretien + CCD.
    H01 Magdalena Ridge Observatory, Socorro.  Observers W. H. Ryan, E. V. Ryan.
        Measurer W. H. Ryan.  2.4-m f/8.9 Ritchey-Chretien + CCD.
    H36 Sandlot Observatory, Scranton.  Observer G. Hug.  .56 meter Reflector +
        CCD.
    L01 Visnjan Observatory, Tican.  Observer K. Korlevic.  1.0-m f/2.9 reflector
        + CCD.
    
    Orbital elements:
    2024 CA7                                                 Earth MOID = 0.0373 AU
    Epoch 2024 Mar. 31.0 TT = JDT 2460400.5                 Bell                    
    M 355.18621              (2000.0)            P               Q                  
    n   0.44104106     Peri.  299.31485     +0.26794023     +0.95531147             
    a   1.7092937      Node   344.61446     -0.63654322     +0.07825882             
    e   0.8315597      Incl.   28.07222     -0.72320174     +0.28505360             
    P   2.23           H   22.50          G   0.15           U   9                  
    Residuals in seconds of arc
    240213 F52  0.0   0.2+    240214 H36  0.1-  0.6-    240215 L01  0.5-  0.1+
    240213 F52  0.1-  0.2+    240214 H36  0.1-  0.6+    240215 L01  0.1-  0.7+
    240213 F52  0.1-  0.1+    240214 H36  0.4-  0.7+    240215 L01  0.1+  0.2+
    240213 F52  0.0   0.1+    240214 F52  0.1-  0.0     240215 L01  0.2+  0.1+
    240214 H01  0.1+  0.0     240214 F52  0.1+  0.0     240215 204  0.5+  0.1-
    240214 H01  0.2+  0.1+    240214 F52  0.0   0.1-    240216 691  0.0   0.0
    240214 H01  0.1+  0.0     240214 F52  0.1-  0.2-    240216 691  0.1-  0.3-
    240214 H01  0.1+  0.1-    240215 204  0.1+  0.0     240216 691  0.0   0.2-
    
    Ephemeris:
    2024 CA7                 a,e,i = 1.71, 0.83, 28                  q = 0.2879
    Date    TT    R. A. (2000) Decl.     Delta      r    Elong.  Phase     V
    2024 01 17    12 21 36.7 +20 00 25   0.8682  1.5832   117.4    33.5    24.6
    ...
    2024 02 01    12 37 52.5 +20 45 11   0.5587  1.3973   127.5    34.0    23.4
    ...
    2024 02 09    12 47 38.2 +21 51 19   0.4002  1.2897   132.2    34.5    22.5
    ...
    2024 02 15    12 57 34.0 +23 27 53   0.2844  1.2046   134.7    35.7    21.6
    2024 02 16    12 59 45.0 +23 51 31   0.2654  1.1900   134.9    36.0    21.5
    2024 02 17    13 02 11.7 +24 18 30   0.2464  1.1753   135.1    36.4    21.3
    ...
    2024 02 23    13 29 25.2 +29 20 43   0.1350  1.0847   132.3    42.4    20.0
    ...
    2024 03 02    21 43 18.1 +25 39 21   0.04377 0.9564    36.9   141.6    22.7
    ...
    2024 03 17    00 13 34.2 -12 52 34   0.3167  0.6905    13.2   160.8    30.4
    
    M. P. C. Staff               (C) Copyright 2024 MPC           M.P.E.C. 2024-D07
    


    Read MPEC 2024-D06 Read MPEC 2024-D08


    MPEC number:

    Enter an MPEC number in one of the following forms:

    • 1997-B01 (the full form)
    • J97B01 (the packed version of the full form)
    • B01 (the abbreviated form)